Wind_Speed
6 8 9 9 10 10 11 11 11 12 11 11 12 12 13 13 14 14 14 14 13 13 13 13 14 14 14 14 14 15 15 15 15 16 16 17 17 17 17 18 18 19 19 19 19 20 20 20 20
6 7 8 9 9 10 10 11 11 11 11 11 11 11 12 12 13 14 14 14 13 13 13 13 13 13 14 14 14 15 15 15 16 16 17 17 17 18 18 18 18 18 19 19 19 19 19 20 20
6 6 7 8 8 9 9 9 9 10 10 10 10 10 11 11 12 13 14 14 14 13 13 13 13 13 14 14 15 15 15 16 16 17 17 17 17 18 18 18 18 18 18 19 19 19 20 20 20
6 7 7 8 8 8 8 8 8 8 8 8 8 9 9 10 10 11 12 13 13 13 13 13 13 14 14 14 15 15 15 16 16 17 17 17 17 17 18 18 18 19 19 19 20 20 21 21 21
8 8 8 8 9 9 8 8 8 8 8 8 8 8 8 8 9 9 10 11 11 12 12 12 13 13 14 14 15 15 15 16 16 17 17 17 18 18 18 19 19 20 20 20 21 21 22 22 22
10 9 9 9 9 9 9 9 8 8 8 8 8 8 8 8 9 9 10 10 10 11 12 12 13 14 14 14 15 15 15 16 17 17 18 18 19 19 20 20 21 21 21 22 22 22 22 23 23
12 12 11 10 10 10 10 10 10 9 9 8 8 8 8 9 9 10 10 11 11 12 13 13 14 14 15 15 15 16 17 17 18 18 19 20 20 21 22 22 22 22 23 23 23 23 24 24 24
16 15 13 12 12 12 11 12 12 11 11 10 10 9 9 9 10 10 11 11 12 13 14 14 15 15 16 16 17 18 18 19 19 20 20 21 21 22 22 22 22 22 23 23 23 24 24 25 25
19 18 16 16 15 14 13 13 13 13 13 13 12 12 11 11 12 12 12 13 13 14 15 15 16 16 17 18 18 19 20 20 21 21 21 22 22 22 22 23 23 23 23 24 24 24 25 25 26
23 21 20 19 18 17 16 15 15 14 15 15 15 14 14 14 14 14 14 15 15 16 16 17 17 18 19 19 20 21 21 21 22 22 23 23 23 23 23 23 23 24 24 24 24 25 25 26 27
26 24 24 22 21 20 19 18 17 16 17 17 17 16 16 16 16 16 17 17 17 17 18 18 19 20 20 21 22 22 22 23 23 24 24 24 24 24 24 24 24 24 24 25 25 25 26 27 28
29 28 27 26 24 23 22 20 19 19 19 20 19 18 18 18 18 18 18 19 19 19 20 20 21 21 22 23 23 23 24 24 25 25 25 25 25 25 25 25 25 25 25 25 26 27 27 28 29
33 32 31 30 28 26 25 24 22 22 23 23 21 21 20 20 20 21 21 21 21 21 22 22 22 23 24 24 25 25 25 26 26 26 26 26 26 25 25 25 26 26 26 27 27 28 29 30 31
36 35 34 33 32 30 29 27 25 25 26 25 24 23 22 22 23 23 23 23 23 23 23 24 24 24 25 25 26 27 27 27 27 27 27 27 27 26 26 26 27 27 27 28 29 30 31 31 32
39 38 37 36 34 33 33 30 28 29 29 27 26 26 25 25 25 25 25 25 25 25 25 25 25 26 26 27 28 28 28 28 29 28 28 28 28 27 28 28 28 28 29 30 30 31 32 32 33
42 41 39 37 37 37 36 32 32 33 32 30 29 28 28 27 27 28 28 27 27 27 27 27 27 27 28 29 29 30 30 29 29 29 29 29 29 29 29 29 29 30 31 31 32 32 33 33 34
44 42 40 40 41 40 40 36 35 36 35 33 32 31 30 30 30 30 30 30 30 29 29 29 29 29 30 30 31 31 31 30 30 30 30 30 30 30 30 30 31 31 32 33 33 33 34 34 35
42 42 42 42 43 44 43 40 38 39 38 36 35 34 33 33 33 33 32 32 32 31 31 31 31 31 31 31 32 32 32 32 31 31 31 31 31 31 31 32 32 33 33 34 34 35 35 35 36
44 45 44 44 45 47 46 43 40 41 41 39 38 37 36 36 36 35 34 34 34 33 33 33 33 33 32 32 32 32 32 32 32 32 32 32 32 32 32 32 33 33 34 35 35 36 36 36 37
45 45 44 44 45 48 49 47 44 43 42 42 40 39 39 39 38 37 36 36 35 35 34 34 34 34 33 33 33 33 33 32 32 32 32 32 33 33 33 33 34 34 35 36 37 37 37 38 38
45 44 43 43 45 48 51 49 45 43 43 43 42 42 42 41 40 39 38 37 36 36 35 35 35 34 34 34 34 34 33 33 33 33 33 33 33 34 34 35 35 36 37 37 38 38 39 39 40
45 42 43 44 46 47 50 51 44 41 40 41 42 43 42 41 40 39 39 38 37 37 36 36 35 34 34 34 34 34 34 34 34 34 34 34 34 35 35 36 36 37 38 39 39 40 40 41 41
43 43 44 45 47 49 48 52 46 39 37 39 41 42 42 41 40 39 38 38 37 37 36 35 35 35 34 34 34 34 34 34 34 34 34 35 35 35 36 36 37 38 39 40 40 41 41 42 43
44 44 45 46 48 50 47 49 48 39 36 37 39 41 41 41 40 40 38 37 36 36 35 35 34 34 34 34 34 34 34 35 35 35 36 36 36 36 37 38 38 39 40 40 41 41 42 43 44
45 44 44 46 47 49 46 46 47 41 37 36 37 39 39 39 39 38 38 37 37 36 35 35 35 35 35 35 35 34 35 35 36 36 36 36 37 37 38 38 39 40 40 41 42 43 44 44 45
43 43 44 45 46 46 46 45 42 40 36 34 35 37 38 38 37 37 37 37 36 36 36 35 34 35 34 34 34 34 35 35 35 36 36 37 38 38 38 39 40 41 42 43 44 45 45 46 46
45 45 43 45 46 47 48 44 39 35 33 33 34 35 36 36 35 35 36 36 35 35 35 34 34 35 34 34 35 35 35 35 36 36 37 37 38 38 39 40 42 43 43 44 45 46 46 47 47
46 45 45 46 47 47 46 42 36 32 32 33 33 33 33 34 34 34 34 34 35 35 35 35 35 35 35 35 35 35 35 35 35 36 37 37 38 39 41 42 43 43 44 45 46 47 47 48 48
46 46 46 47 48 47 45 41 34 31 31 31 31 31 31 32 33 33 33 33 33 34 34 34 34 34 34 34 35 35 34 35 36 36 38 38 39 40 42 43 44 44 45 46 47 47 48 48 48
47 46 45 47 46 45 44 42 35 31 31 31 31 31 31 32 32 33 33 33 33 33 33 33 34 34 33 34 34 34 34 35 36 37 38 39 40 41 43 44 45 45 46 47 48 48 48 49 49
Wind_Direction
185 189 193 198 203 207 211 214 218 219 220 223 225 226 228 229 230 233 236 239 242 245 248 251 253 257 261 265 268 269 271 273 275 277 279 281 282 283 284 285 286 286 287 287 287 288 288 289 289
187 191 192 195 202 206 210 213 215 215 216 218 221 223 226 228 230 232 235 239 242 245 249 252 255 258 262 267 270 272 274 276 278 280 282 283 284 285 286 287 287 288 288 288 288 289 289 290 291
187 188 190 192 194 200 203 205 206 207 211 213 216 220 224 227 231 232 233 237 241 245 249 253 255 259 264 268 271 274 277 278 280 282 284 285 285 286 286 287 288 289 289 290 290 291 291 291 291
191 188 188 190 190 191 192 192 194 200 204 207 210 216 220 224 227 230 232 236 240 244 248 252 256 260 265 269 272 275 278 280 281 283 284 285 285 286 286 286 287 288 288 289 290 290 290 290 290
199 194 191 190 192 191 188 188 192 195 200 204 208 213 217 220 223 227 230 234 239 245 249 253 257 261 265 269 273 276 278 280 282 284 284 285 285 286 287 287 287 287 287 288 288 289 289 289 288
207 201 199 197 199 199 197 196 196 199 202 207 211 215 220 225 228 232 235 237 243 249 253 256 260 264 268 271 273 276 278 281 283 284 285 285 285 286 286 286 286 286 286 287 287 287 287 287 287
215 210 208 208 207 207 206 206 207 209 211 215 219 222 227 231 234 238 241 244 249 255 259 261 263 266 269 272 274 276 278 280 283 284 285 285 285 286 286 285 285 285 285 286 286 287 287 287 287
221 218 216 216 216 216 215 215 216 218 221 224 227 231 235 238 242 246 249 253 256 259 262 264 266 268 270 272 275 277 279 281 283 285 285 285 285 285 285 285 285 285 285 286 287 287 287 287 287
225 224 222 222 221 222 222 222 224 226 229 232 233 237 241 245 250 252 255 258 260 263 265 268 269 271 272 274 276 277 279 281 282 284 285 285 285 286 286 285 285 285 285 286 287 288 288 288 288
229 227 227 227 226 225 226 227 229 231 234 237 238 241 245 249 253 256 259 261 263 265 268 270 272 274 275 276 277 278 279 280 281 283 284 284 285 286 286 286 285 285 285 286 287 288 288 289 289
232 230 230 230 229 228 228 229 231 234 237 239 241 243 247 251 255 258 261 263 265 267 269 271 273 274 275 277 278 279 280 281 282 283 283 283 284 285 285 285 285 286 286 287 288 289 289 290 290
233 232 232 232 232 231 231 231 232 235 239 242 243 245 248 251 255 259 262 264 267 268 270 271 273 275 275 276 278 279 280 281 282 283 283 283 283 284 284 284 285 286 287 288 289 290 290 291 291
234 234 235 235 235 234 234 234 235 237 241 243 245 247 250 253 256 259 262 264 267 269 271 272 274 275 276 277 278 279 279 281 281 281 281 282 282 283 283 284 285 286 287 288 289 290 291 292 291
235 236 237 238 238 238 238 237 238 240 243 245 247 249 251 254 257 260 263 265 267 269 272 273 274 276 277 278 279 279 279 280 280 280 281 281 281 282 283 284 285 286 287 289 290 291 292 292 292
236 237 238 239 240 240 240 239 241 242 245 247 249 251 252 254 258 260 262 265 267 270 272 274 275 276 277 278 279 279 279 279 278 279 279 280 281 282 283 284 285 286 288 289 291 292 292 292 292
238 238 239 240 242 242 242 241 243 244 247 248 250 252 253 255 257 260 262 265 267 270 272 273 274 276 277 277 278 278 278 278 277 277 278 279 280 282 283 284 286 287 289 291 292 292 293 293 293
239 240 241 241 243 243 244 242 244 247 248 249 251 253 254 255 257 259 262 264 267 269 271 273 274 276 277 277 277 277 277 277 276 276 277 278 280 282 283 284 286 288 290 291 292 293 294 294 294
242 242 241 241 243 245 246 245 245 249 250 251 253 254 255 257 258 260 262 264 266 268 271 273 274 276 277 277 277 276 275 274 274 275 276 278 280 282 283 285 287 289 290 291 293 294 294 294 294
241 241 241 242 244 246 247 247 246 249 252 253 254 256 257 259 260 261 263 264 266 268 270 271 273 274 276 276 276 275 274 274 274 275 276 278 280 282 283 285 287 289 290 292 293 294 294 294 294
242 243 243 244 246 248 248 248 247 249 253 255 255 256 257 259 261 262 263 264 265 267 268 270 271 273 274 274 274 274 274 274 274 275 276 278 280 281 283 286 287 289 291 292 293 294 295 295 295
242 244 245 246 246 249 250 249 249 250 253 255 257 257 258 260 261 262 263 264 265 266 267 268 270 271 272 273 273 274 273 273 274 274 275 278 279 281 283 286 287 289 290 292 294 295 295 295 295
243 244 246 247 247 249 252 253 249 251 253 256 257 258 259 260 261 262 263 263 264 264 265 267 268 269 270 271 272 272 272 273 274 275 277 279 280 282 284 286 288 289 291 292 293 294 295 295 295
245 245 246 247 249 250 251 256 252 251 252 255 257 258 259 260 261 261 262 262 262 263 264 265 266 268 269 270 270 271 272 273 275 276 277 279 281 282 284 286 289 291 292 293 294 294 295 295 295
242 244 245 248 250 251 252 257 257 254 253 254 257 259 260 260 260 260 260 261 262 262 262 264 265 266 267 268 269 271 272 274 275 276 278 279 281 282 285 287 289 291 292 294 294 295 295 296 296
241 244 247 249 250 254 255 256 259 260 257 256 257 258 259 260 260 259 259 260 261 261 261 263 264 265 266 267 269 270 272 274 276 277 278 280 282 284 286 288 289 291 293 294 294 295 296 296 296
242 245 248 252 254 256 255 255 257 260 260 258 256 256 258 258 259 259 259 260 260 261 261 262 262 263 265 266 268 270 272 274 276 276 278 280 283 285 287 288 290 292 293 294 294 295 296 296 296
240 243 247 251 253 255 255 256 256 260 261 259 257 257 257 257 258 259 259 259 260 260 260 260 261 262 264 265 268 270 273 274 274 277 279 281 283 286 287 289 291 292 293 294 295 296 297 297 297
238 240 242 246 250 254 256 257 257 258 259 259 258 257 256 256 257 258 258 258 258 258 259 260 261 262 264 266 268 270 272 273 275 277 279 281 283 285 288 290 291 292 293 295 295 296 297 298 298
237 239 242 246 249 254 257 258 257 259 259 259 259 259 257 256 256 256 256 257 257 258 259 260 260 262 264 265 267 269 270 272 275 277 279 281 284 287 289 290 291 292 294 295 296 297 298 298 299
237 239 241 244 248 252 256 257 257 259 259 259 259 258 257 256 255 255 256 257 257 257 258 259 260 262 264 265 267 269 271 274 276 278 280 282 285 287 289 290 291 293 295 296 297 298 298 299 300
Height
5866 5866 5867 5869 5870 5871 5871 5872 5872 5873 5874 5875 5875 5876 5877 5878 5880 5882 5881 5880 5881 5882 5882 5883 5883 5883 5883 5884 5883 5883 5883 5883 5882 5882 5882 5881 5881 5880 5879 5878 5878 5877 5876 5875 5874 5873 5872 5871 5870
5865 5866 5867 5868 5869 5869 5870 5870 5871 5871 5872 5873 5873 5874 5875 5875 5876 5877 5878 5878 5879 5879 5880 5880 5881 5881 5881 5881 5881 5881 5881 5880 5880 5880 5879 5879 5878 5877 5876 5876 5875 5874 5873 5872 5871 5870 5869 5868 5867
5864 5865 5866 5867 5867 5868 5869 5869 5869 5870 5870 5871 5872 5872 5873 5874 5874 5875 5876 5876 5877 5878 5878 5878 5879 5879 5879 5879 5879 5879 5878 5878 5878 5877 5877 5876 5875 5875 5874 5873 5872 5871 5870 5869 5868 5867 5866 5865 5864
5864 5865 5866 5867 5866 5867 5867 5868 5868 5868 5869 5870 5870 5871 5872 5872 5873 5873 5874 5874 5875 5875 5876 5876 5877 5877 5877 5877 5877 5876 5876 5875 5875 5875 5874 5873 5872 5872 5871 5870 5869 5868 5867 5866 5865 5863 5862 5861 5860
5862 5863 5865 5865 5865 5865 5866 5866 5866 5867 5868 5868 5869 5870 5870 5871 5871 5871 5872 5872 5873 5873 5874 5874 5874 5875 5875 5874 5874 5874 5873 5873 5872 5872 5871 5870 5869 5868 5867 5867 5866 5865 5863 5862 5861 5860 5858 5857 5856
5862 5862 5863 5863 5863 5864 5864 5865 5865 5866 5866 5867 5868 5868 5869 5869 5870 5870 5870 5871 5871 5871 5872 5872 5872 5872 5872 5872 5871 5871 5871 5870 5870 5869 5868 5867 5866 5865 5864 5863 5862 5861 5860 5858 5857 5856 5854 5853 5852
5860 5860 5861 5861 5861 5862 5863 5863 5863 5864 5865 5865 5866 5867 5867 5868 5868 5868 5869 5869 5869 5869 5869 5869 5869 5869 5869 5869 5869 5868 5868 5867 5866 5866 5865 5864 5863 5862 5860 5859 5858 5857 5855 5854 5853 5851 5850 5849 5847
5856 5858 5858 5859 5859 5860 5861 5861 5861 5862 5863 5863 5864 5865 5865 5866 5866 5866 5866 5867 5867 5867 5867 5867 5867 5866 5866 5866 5865 5865 5864 5864 5863 5862 5861 5860 5859 5858 5856 5855 5854 5852 5851 5850 5848 5847 5845 5844 5842
5852 5855 5855 5856 5856 5857 5858 5858 5859 5860 5860 5861 5861 5862 5863 5863 5863 5863 5864 5864 5864 5864 5864 5864 5863 5863 5863 5862 5862 5861 5860 5860 5859 5858 5857 5856 5855 5853 5852 5851 5849 5848 5847 5845 5844 5842 5841 5839 5837
5848 5850 5851 5852 5853 5854 5854 5855 5856 5857 5857 5858 5858 5859 5859 5859 5860 5860 5860 5861 5861 5861 5861 5860 5860 5859 5859 5858 5858 5857 5856 5856 5855 5854 5853 5851 5850 5849 5847 5846 5845 5843 5842 5840 5839 5837 5835 5834 5832
5843 5845 5846 5847 5848 5850 5851 5852 5852 5853 5854 5854 5855 5855 5856 5856 5856 5856 5857 5857 5857 5857 5857 5856 5856 5855 5855 5854 5853 5853 5852 5851 5850 5849 5848 5847 5845 5844 5843 5841 5840 5838 5837 5835 5834 5832 5830 5828 5826
5837 5839 5840 5842 5843 5845 5846 5847 5849 5849 5850 5850 5851 5852 5852 5852 5852 5852 5852 5853 5853 5853 5853 5852 5852 5851 5851 5850 5849 5848 5847 5846 5845 5844 5843 5842 5841 5839 5838 5836 5835 5833 5832 5830 5828 5826 5824 5822 5820
5829 5832 5833 5835 5837 5839 5841 5842 5844 5845 5845 5845 5846 5847 5848 5848 5848 5848 5848 5848 5848 5848 5848 5848 5847 5847 5846 5845 5844 5843 5842 5841 5840 5839 5838 5837 5835 5834 5833 5831 5830 5828 5826 5824 5822 5820 5818 5816 5814
5822 5825 5827 5829 5831 5833 5835 5837 5839 5840 5839 5840 5842 5842 5843 5843 5843 5843 5843 5843 5843 5843 5843 5842 5842 5841 5841 5840 5839 5838 5837 5836 5835 5834 5833 5831 5830 5829 5827 5826 5824 5822 5820 5818 5816 5814 5812 5809 5807
5814 5817 5819 5822 5824 5826 5828 5831 5833 5833 5833 5835 5836 5837 5838 5838 5838 5838 5838 5837 5837 5837 5837 5837 5836 5836 5835 5834 5833 5832 5831 5830 5829 5828 5827 5825 5824 5823 5821 5820 5818 5816 5814 5812 5810 5807 5805 5802 5800
5805 5809 5812 5815 5816 5818 5821 5825 5825 5825 5827 5829 5830 5831 5831 5832 5832 5832 5832 5832 5831 5831 5831 5831 5830 5829 5829 5828 5827 5826 5825 5824 5823 5822 5821 5819 5818 5817 5815 5813 5812 5810 5807 5805 5803 5800 5798 5795 5792
5797 5801 5805 5807 5807 5809 5811 5816 5818 5817 5819 5822 5823 5824 5825 5825 5825 5825 5825 5825 5825 5825 5825 5824 5824 5823 5822 5821 5820 5819 5818 5817 5816 5815 5814 5813 5812 5810 5808 5807 5805 5803 5800 5798 5796 5793 5790 5788 5785
5791 5793 5795 5797 5798 5799 5802 5807 5810 5809 5811 5814 5815 5816 5817 5818 5818 5818 5818 5818 5818 5818 5818 5817 5817 5816 5815 5814 5813 5812 5811 5810 5810 5809 5808 5806 5805 5803 5802 5800 5798 5796 5793 5791 5788 5786 5783 5780 5777
5779 5782 5785 5788 5789 5790 5792 5796 5801 5801 5803 5805 5807 5808 5809 5810 5810 5810 5811 5811 5811 5810 5810 5810 5809 5808 5808 5807 5806 5805 5804 5804 5803 5802 5801 5799 5798 5796 5795 5793 5791 5789 5786 5784 5781 5778 5775 5772 5769
5769 5772 5776 5779 5780 5780 5782 5785 5791 5793 5794 5796 5798 5799 5800 5801 5801 5802 5803 5803 5803 5802 5802 5801 5801 5801 5800 5800 5799 5798 5797 5797 5796 5795 5793 5792 5791 5789 5787 5786 5784 5781 5779 5776 5773 5770 5767 5764 5761
5759 5763 5767 5769 5769 5769 5771 5776 5782 5785 5786 5787 5788 5789 5790 5792 5792 5793 5794 5794 5794 5794 5794 5793 5793 5792 5792 5791 5791 5790 5790 5789 5788 5787 5786 5785 5783 5782 5780 5778 5776 5773 5771 5768 5765 5762 5759 5756 5752
5750 5755 5756 5758 5759 5760 5762 5763 5773 5776 5777 5777 5778 5779 5780 5782 5783 5784 5784 5785 5785 5785 5785 5785 5785 5784 5784 5783 5783 5782 5782 5781 5780 5779 5778 5777 5775 5774 5772 5770 5767 5765 5762 5760 5757 5753 5750 5747 5744
5742 5744 5745 5747 5748 5750 5753 5752 5761 5768 5769 5768 5768 5769 5770 5772 5773 5774 5775 5775 5776 5776 5776 5776 5776 5776 5776 5775 5775 5774 5774 5773 5773 5771 5770 5769 5767 5765 5764 5761 5759 5757 5754 5751 5748 5744 5741 5737 5734
5730 5733 5735 5736 5737 5740 5746 5744 5748 5758 5760 5759 5759 5759 5760 5762 5763 5764 5765 5766 5766 5767 5767 5767 5767 5767 5767 5767 5766 5766 5766 5765 5764 5763 5762 5761 5759 5757 5755 5753 5750 5748 5745 5741 5738 5735 5731 5728 5724
5721 5724 5726 5726 5728 5731 5735 5736 5740 5745 5749 5749 5750 5750 5751 5752 5753 5754 5755 5756 5757 5758 5758 5758 5759 5759 5759 5758 5758 5758 5757 5757 5756 5755 5754 5752 5751 5749 5746 5744 5741 5738 5735 5732 5729 5725 5721 5717 5713
5713 5715 5718 5720 5721 5723 5723 5726 5733 5735 5737 5738 5739 5740 5741 5742 5743 5745 5746 5747 5748 5748 5749 5749 5750 5750 5750 5750 5750 5749 5749 5748 5747 5746 5745 5744 5742 5740 5737 5735 5732 5729 5726 5722 5718 5715 5711 5707 5703
5701 5704 5709 5709 5709 5711 5712 5717 5724 5726 5727 5728 5729 5730 5731 5733 5734 5735 5736 5737 5738 5739 5740 5740 5741 5741 5741 5741 5741 5741 5740 5740 5739 5738 5736 5734 5733 5730 5728 5725 5722 5719 5715 5712 5708 5704 5700 5696 5692
5691 5694 5696 5697 5699 5700 5704 5709 5715 5718 5718 5719 5719 5721 5722 5724 5725 5726 5727 5728 5729 5730 5731 5731 5732 5732 5732 5732 5732 5732 5731 5731 5730 5728 5727 5725 5723 5721 5718 5715 5712 5708 5705 5701 5697 5693 5689 5685 5680
5681 5684 5686 5689 5691 5694 5696 5702 5706 5709 5709 5709 5710 5711 5713 5714 5715 5717 5718 5719 5720 5721 5722 5722 5723 5723 5723 5723 5723 5723 5722 5722 5721 5719 5718 5716 5713 5711 5708 5705 5701 5698 5694 5690 5686 5682 5677 5673 5668
5668 5672 5676 5679 5682 5685 5687 5694 5696 5699 5700 5700 5701 5702 5704 5705 5706 5708 5709 5710 5711 5712 5713 5714 5714 5714 5714 5714 5714 5714 5713 5712 5711 5710 5708 5706 5703 5701 5698 5694 5691 5687 5683 5679 5675 5671 5666 5661 5656